Regional Weather Roundup
Issued by NWS

Home | Current Version | Previous Version | Text Only | Print | Product List | Glossary On
Versions: 1 2 3 4 5 6 7 8 9 10 11 12 13 14 15 16 17 18 19 20 21 22 23 24 25 26 27 28 29 30 31 32 33 34 35 36 37 38 39 40 41 42 43 44 45 46 47 48 49 50
000
ASUS43 KMKX 011521
RWRWI

WISCONSIN REGIONAL WEATHER ROUNDUP
NATIONAL WEATHER SERVICE MILWAUKEE/SULLIVAN WI
1000 AM CDT WED JUL 01 2015

NOTE: "FAIR" INDICATES FEW OR NO CLOUDS BELOW 12,000 FEET WITH NO
SIGNIFICANT WEATHER AND/OR OBSTRUCTIONS TO VISIBILITY.

WIZ001-002-006>008-014>016-023>028-011600-
NORTHWEST WISCONSIN

CITY           SKY/WX    TMP DP  RH WIND       PRES   REMARKS
SUPERIOR ARPT  CLOUDY    62  51  68 CALM      30.02S
ASHLAND        SUNNY     61  52  72 CALM      30.04S
HAYWARD        SUNNY     60  48  64 CALM      30.04R
SIREN          PTSUNNY   63  47  56 S3        30.03S
CUMBERLAND     PTSUNNY   57  45  62 SE3       30.03S
RICE LAKE      PTSUNNY   60  44  55 E5        30.05S
CHETEK         PTSUNNY   60  48  66 CALM      30.04S
LADYSMITH      MOSUNNY   60  46  59 CALM      30.05S
EAU CLAIRE     PTSUNNY   62  47  57 NE8       30.01F
MENOMONIE      PTSUNNY   61  50  65 E5        30.03S
NEW RICHMOND   PTSUNNY   61  48  62 E6        30.02S
OSCEOLA        PTSUNNY   62  49  60 CALM      30.05S
$$

WIZ003>005-009-010-017-018-011600-
NORTH CENTRAL WISCONSIN

CITY           SKY/WX    TMP DP  RH WIND       PRES   REMARKS
MANITOWISH WTR SUNNY     58  46  64 N6        30.04S
ARBOR VITAE    SUNNY     59  45  59 N7        30.03S
WOODRUFF       SUNNY     59  45  59 N7        30.03S
RHINELANDER    SUNNY     58  43  57 NE10      30.03S
EAGLE RIVER    SUNNY     58  42  56 NE10      30.02F
LAND O LAKES   SUNNY     58  43  57 N10       30.03F
PHILLIPS       PTSUNNY   59  46  63 N6        30.03S
TOMAHAWK       SUNNY     59  44  58 NE6       30.03F
MEDFORD        MOSUNNY   58  46  63 NE6       30.03S
MERRILL        SUNNY     59  46  62 N9        30.02F
$$

WIZ029-030-035-036-043>047-011600-
CENTRAL WISCONSIN

CITY           SKY/WX    TMP DP  RH WIND       PRES   REMARKS
WAUSAU         MOSUNNY   60  43  53 N7        30.00F
MOSINEE        SUNNY     59  46  63 N9        30.02S
MARSHFIELD     PTSUNNY   60  44  55 NE7       30.02S
STEVENS POINT  SUNNY     59  43  56 N6        30.01S
WAUPACA        SUNNY     62  47  58 N7        30.00R
WAUTOMA        SUNNY     62  45  53 N7        30.00S
WISC RAPIDS    MOSUNNY   61  44  53 N8        30.01F
CAMP DOUGLAS   MOSUNNY   63  54  72 NE6       30.00F
$$

WIZ011>013-019>022-031-037>040-048>050-011600-
NORTHEAST WISCONSIN

CITY           SKY/WX    TMP DP  RH WIND       PRES   REMARKS
ANTIGO         SUNNY     58  45  60 N13       30.00F
SHAWANO        SUNNY     60  47  61 NE8       29.99S
OCONTO         CLOUDY    52  48  86 N6        29.99S
STURGEON BAY   CLOUDY    52  46  82 N13       30.01R
GREEN BAY      PTSUNNY   59  49  69 VRB5      29.98F
MANITOWOC      CLOUDY    56  51  84 MISG      29.98S
APPLETON       MOSUNNY   55  45  67 N7        29.99S
CLINTONVILLE   SUNNY     59  45  58 N8        29.99S
OSHKOSH        SUNNY     58  47  66 VRB5      29.98S
$$

WIZ032>034-041-042-053>061-011600-
SOUTHWEST WISCONSIN

CITY           SKY/WX    TMP DP  RH WIND       PRES   REMARKS
LA CROSSE      MOSUNNY   62  49  62 VRB5      30.00S
SPARTA         SUNNY     63  44  49 E8        30.01F
VIROQUA        MOSUNNY   62  49  64 E7        30.01S
BOSCOBEL       SUNNY     63  50  62 NE5       30.00S
PRAIRIE DU CHI SUNNY     62  51  65 E5        29.99F
PLATTEVILLE    SUNNY     62  57  83 NE7       29.99S
$$

WIZ056-057-062-063-064-067-068-011600-
SOUTH CENTRAL WISCONSIN

CITY           SKY/WX    TMP DP  RH WIND       PRES   REMARKS
REEDSBURG      SUNNY     61  47  61 N7        29.99S
BARABOO/DELLS  SUNNY     60  43  52 NE7       29.99F
LONE ROCK      SUNNY     64  48  56 N7        30.00S
MINERAL POINT  SUNNY     63  54  72 E3        29.99S
MADISON        MOSUNNY   63  47  55 N6        29.98F
MIDDLETON      SUNNY     64  47  54 N7        29.99F
WATERTOWN      SUNNY     61  50  66 NW8       29.98S
MONROE         CLOUDY    61  54  77 N5        29.98S
JANESVILLE     CLOUDY    63  55  77 CALM      29.97S
$$

WIZ051-052-058>065-066-070>072-011600-
SOUTHEAST WISCONSIN

CITY           SKY/WX    TMP DP  RH WIND       PRES   REMARKS
MILWAUKEE      MOSUNNY   61  49  64 NE10      29.97F
WAUKESHA       MOSUNNY   59  48  67 N5        29.98S
MILWAUKEE/TIMM SUNNY     61  46  59 CALM      29.99R
RACINE         SUNNY     62  47  57 N12       29.99S
BURLINGTON     PTSUNNY   60  53  75 NW6       29.97S
KENOSHA        MOSUNNY   63  51  65 N6        29.98R
FOND DU LAC    SUNNY     60  48  64 N3        29.98F
SHEBOYGAN      CLOUDY    57  50  77 N6        29.97S
WEST BEND      SUNNY     59  46  63 W7        29.97F
JUNEAU         SUNNY     58  48  67 NW7       29.99F
$$

LSZ147-162-011600-
LAKE SUPERIOR

STATION/POSITION TIME  TEMP    WIND        PRES    WAVE
                       AIR SEA DIR/SP/G            HT/PER
                 (UTC) (F)     (DEG/KT/KT) (MB)    (FT/S)
W MID LAKE BUOY  1450   46 39  210/  4/  4 1017.4F   1
DEVILS ISLAND    1500   57      60/  1/  2 1017.2F
SAXON HARBOR     1400   56        CALM     1016.9
$$

LMZ867-665-643>646-011600-
LAKE MICHIGAN

STATION/POSITION TIME  TEMP    WIND        PRES    WAVE
                       AIR SEA DIR/SP/G            HT/PER
                 (UTC) (F)     (DEG/KT/KT) (MB)    (FT/S)
CHAMBERS ISLAND  1400   52     330/ 10/ 14 1015.2S
N MID LAKE BUOY  1450   45 40  320/  8/  8 1014.4S   2/ 4
NORTHPORT PIER   1400   52     340/ 15/ 18 1014.9S
SISTER BAY       1414   52     360/ 16/ 21   N/A
ALGOMA LAKESHORE 1440          320/  7/  9   N/A
KEWAUNEE LAKESHO 1500   54     350/  7/  9 1014.5R
SHEBOYGAN LAKESH 1500   55      10/  8/  9 1015.5R
PORT WASHINGTON  1400   61      10/  4/  8 1015.9R
ATWATER BUOY     1500   57      50/  6/ 10 1016.4
MILWAUKEE LAKESH 1500   56      50/ 10/ 11   N/A
KENOSHA   LAKESH 1500   57      50/ 11/ 12 1014.9S
$$

TC  - TEMPERATURE IN CELSIUS
VSB - VISIBILITY IN STATUTE MILES
WCI - WIND CHILL INDEX
HX  - HEAT INDEX




USA.gov is the U.S. government's official web portal to all federal, state and local government web resources and services.